Springfield, MO

11:15 AM CDT on June 25, 2017 (GMT -0500)
Springfield-Branson Regional

Weather History for KSGF - May, 2014

Change the Weather History Date:

Saturday, May 10, 2014

  Actual Average Record
Temperature  
Mean Temperature 70 °F 63 °F  
Max Temperature 84 °F 74 °F 91 °F (1963)
Min Temperature 55 °F 53 °F 34 °F (1924)
Degree Days  
Heating Degree Days 0 4  
Month to date heating degree days 35 47  
Since 1 July heating degree days 4943 4521  
Cooling Degree Days 5 2  
Month to date cooling degree days 57 15  
Year to date cooling degree days 71 40  
Growing Degree Days 20 (Base 50)    
Moisture  
Dew Point 59 °F    
Average Humidity 67    
Maximum Humidity 90    
Minimum Humidity 44    
Precipitation  
Precipitation 0.00 in 0.18 in 3.15 in (2006)
Month to date precipitation 1.17 1.78  
Year to date precipitation 7.37 14.71  
Snow  
Snow 0.00 in - - ()
Month to date snowfall 0.0  
Since 1 July snowfall 32.2  
Snow Depth 0.00 in    
Sea Level Pressure  
Sea Level Pressure 29.86 in    
Wind  
Wind Speed 10 mph (SSE)    
Max Wind Speed 20 mph    
Max Gust Speed 26 mph    
Visibility 10 miles    
Events      
T = Trace of Precipitation, MM = Missing Value Source: NWS Daily Summary

Daily Weather History Graph

Daily Weather History Graph

Search for Another Location

Airport or City:

Trip Planner

Search our weather history database for the weather conditions in past years. The results will help you decide how hot, cold, wet, or windy it might be!

Date:

Astronomy

May. 10, 2014 Rise Set
Actual Time 6:09 AM CDT 8:11 PM CDT
Civil Twilight 5:40 AM CDT 8:39 PM CDT
Nautical Twilight 5:05 AM CDT 9:14 PM CDT
Astronomical Twilight 4:28 AM CDT 9:52 PM CDT
Moon 4:12 PM CDT (5/10) 3:37 AM CDT (5/10)
Length of Visible Light 14h 59m
Length of Day
14h 01m
Waxing Gibbous, 82% of the Moon is Illuminated
May 10
Waxing Gibbous
May 14
Full
May 21
Last Quarter
May 28
New
Jun 5
First Quarter

Hourly Weather History & Observations

Time (CDT) Temp. Heat Index Dew Point Humidity Pressure Visibility Wind Dir Wind Speed Gust Speed Precip Events Conditions
12:52 AM 60.1 °F - 55.0 °F 83% 29.90 in 10.0 mi SE 3.5 mph - N/A   Clear
1:52 AM 61.0 °F - 55.0 °F 81% 29.89 in 10.0 mi Calm Calm - N/A   Mostly Cloudy
2:52 AM 59.0 °F - 54.0 °F 83% 29.87 in 10.0 mi Calm Calm - N/A   Clear
3:52 AM 55.0 °F - 51.1 °F 86% 29.85 in 10.0 mi ESE 6.9 mph - N/A   Clear
4:52 AM 57.0 °F - 52.0 °F 83% 29.86 in 10.0 mi Calm Calm - N/A   Clear
5:52 AM 59.0 °F - 51.8 °F 77% 29.89 in 10.0 mi ESE 3.5 mph - N/A   Clear
6:19 AM 55.0 °F - 51.1 °F 86% 29.90 in 10.0 mi SSE 4.6 mph - N/A   Scattered Clouds
6:27 AM 55.9 °F - 52.0 °F 87% 29.90 in 10.0 mi SE 3.5 mph - N/A   Mostly Cloudy
6:38 AM 57.0 °F - 53.1 °F 87% 29.91 in 10.0 mi South 4.6 mph - N/A   Scattered Clouds
6:52 AM 59.0 °F - 55.0 °F 87% 29.88 in 10.0 mi SSE 3.5 mph - N/A   Partly Cloudy
7:52 AM 63.0 °F - 59.0 °F 87% 29.90 in 10.0 mi SSE 8.1 mph - N/A   Clear
8:52 AM 69.1 °F - 63.0 °F 81% 29.90 in 10.0 mi SSE 9.2 mph - N/A   Clear
9:41 AM 71.1 °F - 64.0 °F 78% 29.93 in 10.0 mi South 13.8 mph - N/A   Mostly Cloudy
9:52 AM 71.1 °F - 64.0 °F 78% 29.91 in 10.0 mi South 12.7 mph - N/A   Overcast
10:15 AM 71.1 °F - 64.0 °F 78% 29.93 in 10.0 mi South 17.3 mph - N/A   Overcast
10:52 AM 72.0 °F - 64.0 °F 76% 29.91 in 10.0 mi South 10.4 mph - N/A   Overcast
11:52 AM 75.9 °F - 64.9 °F 69% 29.89 in 10.0 mi South 9.2 mph - N/A   Mostly Cloudy
12:06 PM 77.0 °F - 64.9 °F 66% 29.92 in 10.0 mi South 15.0 mph - N/A   Scattered Clouds
12:52 PM 79.0 °F - 64.0 °F 60% 29.87 in 10.0 mi SSW 12.7 mph 18.4 mph N/A   Mostly Cloudy
1:52 PM 79.0 °F - 63.0 °F 58% 29.85 in 10.0 mi South 12.7 mph 18.4 mph N/A   Scattered Clouds
2:52 PM 82.0 °F 83.1 °F 63.0 °F 52% 29.83 in 10.0 mi South 12.7 mph 20.7 mph N/A   Partly Cloudy
3:52 PM 82.9 °F 83.7 °F 62.1 °F 49% 29.80 in 10.0 mi South 15.0 mph - N/A   Clear
4:52 PM 84.0 °F 84.0 °F 60.1 °F 44% 29.77 in 10.0 mi South 17.3 mph - N/A   Clear
5:52 PM 81.0 °F 81.3 °F 59.0 °F 47% 29.77 in 10.0 mi South 16.1 mph - N/A   Clear
6:52 PM 80.1 °F 80.6 °F 57.9 °F 47% 29.76 in 10.0 mi South 12.7 mph - N/A   Clear
7:52 PM 77.0 °F - 61.0 °F 58% 29.77 in 10.0 mi SSE 10.4 mph - N/A   Clear
8:52 PM 75.0 °F - 61.0 °F 62% 29.78 in 10.0 mi South 11.5 mph - N/A   Clear
9:52 PM 73.4 °F - 60.8 °F 65% 29.83 in 10.0 mi SSE 15.0 mph 21.9 mph N/A   Clear
10:52 PM 73.0 °F - 63.0 °F 71% 29.81 in 10.0 mi South 15.0 mph - N/A   Clear
11:52 PM 71.1 °F - 64.0 °F 78% 29.82 in 10.0 mi SSE 16.1 mph - N/A   Clear